[Iaude] MPEC T126: 2023 TE4 [a=2.81,e=0.57,i=22.3,H=21.3]

mpec at marsden.cfa.harvard.edu mpec at marsden.cfa.harvard.edu
Mon Oct 9 19:04:10 EDT 2023


M.P.E.C. 2023-T126                              Issued 2023 October 9, 23:02 UT

     The Minor Planet Electronic Circulars contain information on unusual
         minor planets, routine data on comets and natural satellites,
         and occasional editorial announcements.  They are published
    on behalf of Division F of the International Astronomical Union by the
          Minor Planet Center, Smithsonian Astrophysical Observatory,
                          Cambridge, MA 02138, U.S.A.
			  
             Prepared using the Tamkin Foundation Computer Network

                              MPC at CFA.HARVARD.EDU
            URL https://www.minorplanetcenter.net/    ISSN 1523-6714

                                    2023 TE4                                    


Observations:
     K23T04E  C2023 10 01.37716821 33 05.141+07 56 42.87         21.23GVET126F51
     K23T04E  C2023 10 01.38864421 33 05.883+07 56 06.12         22.06GVET126F51
     K23T04E  C2023 10 01.40016621 33 06.605+07 55 28.59         21.51GVET126F51
     K23T04E* C2023 10 08.23537821 43 15.737+01 32 31.41         20.86wXET126F52
     K23T04E  C2023 10 08.24774021 43 16.916+01 31 48.67         21.04wXET126F52
     K23T04E  C2023 10 08.26018421 43 18.124+01 31 05.31         21.38wXET126F52
     K23T04E  C2023 10 08.27263321 43 19.313+01 30 22.36         21.25wXET126F52
     K23T04E 7C2023 10 08.84466521 44 20.528+00 57 06.52         20.6 GVET126Z84
     K23T04E IC2023 10 08.84630621 44 20.42 +00 56 57.7          20.7 GVET126L01
     K23T04E 7C2023 10 08.85194221 44 21.294+00 56 41.24         20.5 GVET126Z84
     K23T04E KC2023 10 08.85302221 44 21.01 +00 56 34.4          20.6 GVET126L01
     K23T04E KC2023 10 08.85580421 44 21.28 +00 56 24.8          20.9 GVET126L01
     K23T04E 7C2023 10 08.85921721 44 22.036+00 56 15.87         20.4 GVET126Z84
     K23T04E pC2023 10 08.86070121 44 21.85 +00 56 07.2          20.5 GVET126L01
     K23T04E KC2023 10 08.89897 21 44 25.86 +00 53 54.6                VET126204
     K23T04E HC2023 10 08.91697 21 44 27.71 +00 52 52.2          20.6 GVET126204
     K23T04E KC2023 10 09.12269621 44 51.137+00 40 58.69         20.84GVET126I52
     K23T04E KC2023 10 09.12463821 44 51.284+00 40 52.21         20.95GVET126I52
     K23T04E KC2023 10 09.12658921 44 51.472+00 40 45.16         21.16GVET126I52
     K23T04E KC2023 10 09.12854921 44 51.652+00 40 40.44               VET126I52
     K23T04E  C2023 10 09.16895421 44 55.961+00 38 16.77         21.4 GVET126654
     K23T04E  C2023 10 09.17699921 44 56.793+00 37 48.55         21.4 GVET126654

Observer details:
204 Schiaparelli Observatory.  Observers L. Buzzi, G. Galli.  0.84-m f/3.5
    reflector + CCD.
654 Table Mountain Observatory, Wrightwood-PHMC.  Observers N. Evans, P. Choi,
    N. Saini, C. Zhai, R. Trahan, M. Shao.  1.0-m Reflector + CCD.
F51 Pan-STARRS 1, Haleakala.  Observers J. Bulger, K. Chambers, T. Lowe, P.
    Minguez, A. Schultz, I. Smith.  Measurers S. Chastel, J. Fairlamb, M.
    Huber, Y. Ramanjooloo, R. Wainscoat, R. Weryk.  1.8-m Ritchey-Chretien +
    CCD.
F52 Pan-STARRS 2, Haleakala.  Observers J. Bulger, T. Lowe, P. Minguez, A.
    Schultz, I. Smith.  Measurers K. Chambers, T. de Boer, J. Bulger, J.
    Fairlamb, H. Gao, M. Huber, C.-C. Lin, T. Lowe, E. Magnier, P. Minguez, Y.
    Ramanjooloo, A. Schultz, I. Smith, R. Wainscoat, R. Weryk.  1.8-m Ritchey-
    Chretien + CCD.
I52 Steward Observatory, Mt. Lemmon Station.  Observer J. B. Fazekas.
    Measurers E. C. Beshore, D. Fay, J. B. Fazekas, D. C. Fuls, A. R. Gibbs,
    A. D. Grauer, H. Groeller, J. K. Hogan, R. A. Kowalski, S. M. Larson, G.
    J. Leonard, D. Rankin, R. L. Seaman, F. C. Shelly, K. W. Wierzchos.  1.0-m
    prime focus + CCD.
L01 Visnjan Observatory, Tican.  Observer K. Korlevic.  1.0-m f/2.9 reflector
    + CCD.
Z84 Calar Alto-Schmidt.  Observers F. Ocana, M. Micheli, R. Kresken, L.
    Conversi.  Measurers F. Ocana, M. Micheli.  0.8-m f/3 Schmidt + CCD.

Orbital elements:
2023 TE4                                                 Earth MOID = 0.2349 AU
Epoch 2023 Sept. 13.0 TT = JDT 2460200.5                Veres                   
M 347.08550              (2000.0)            P               Q                  
n   0.20932521     Peri.  201.25283     +0.83420427     -0.54498338             
a   2.8092368      Node   192.83398     +0.54466003     +0.83816205             
e   0.5679653      Incl.   22.28676     +0.08630575     -0.02185156             
P   4.71           H   21.37          G   0.15           U   9                  
Residuals in seconds of arc
231001 F51  0.1+  0.1-    231008 L01  0.5+  0.6-    231009 I52  0.6+  0.1-
231001 F51  0.1+  0.2+    231008 Z84  0.2+  0.1+    231009 I52  0.1-  0.2+
231001 F51  0.3-  0.1-    231008 L01  0.9-  0.5-    231009 I52  0.3-  0.1-
231008 F52  0.4+  0.1+    231008 L01  1.1-  0.4-    231009 I52  0.6-  2.1+
231008 F52  0.1+  0.2+    231008 Z84  0.3+  0.0     231009 654  0.0   0.0
231008 F52  0.1+  0.1+    231008 L01  0.0   1.0-    231009 654  0.2+  0.1-
231008 F52  0.1-  0.3+    231008 204  0.1+  0.0
231008 Z84  0.3-  0.0     231008 204  0.1+  0.3+

Ephemeris:
2023 TE4                 a,e,i = 2.81, 0.57, 22                  q = 1.2137
Date    TT    R. A. (2000) Decl.     Delta      r    Elong.  Phase     V
2023 09 09    21 23 05.7 +23 20 36   0.4949  1.4281   141.4    26.1    21.8
...
2023 09 24    21 26 13.3 +14 06 31   0.4185  1.3481   139.2    29.1    21.4
...
2023 10 02    21 33 51.8 +07 23 17   0.3919  1.3113   135.9    32.1    21.3
...
2023 10 08    21 42 50.4 +01 46 18   0.3792  1.2869   132.7    34.8    21.2
2023 10 09    21 44 37.2 +00 48 22   0.3777  1.2832   132.1    35.3    21.2
2023 10 10    21 46 28.9 -00 09 53   0.3764  1.2795   131.4    35.8    21.2
...
2023 10 16    21 59 23.3 -06 00 50   0.3725  1.2593   127.5    38.9    21.3
...
2023 10 24    22 21 05.2 -13 28 22   0.3775  1.2377   122.1    42.9    21.4
...
2023 11 08    23 13 03.4 -24 28 01   0.4146  1.2155   113.2    48.5    21.7

M. P. C. Staff               (C) Copyright 2023 MPC           M.P.E.C. 2023-T126





More information about the Iaude mailing list